EW7239 Weather Reports


Display with metric or nautical units.
time (UTC)temp
F
wind
direction
speed
MPH
gust
MPH
rain 1hr
in
rain 24hr
in
rain mn
in
humidity
%
barometer
mb
20180618184109 72 0 2.0 7.0 0.00 0.00 0.00 49 1015.7
20180618183603 72 0 2.0 5.0 0.00 0.00 0.00 50 1015.7
20180618183104 71 0 2.0 9.0 0.00 0.00 0.00 51 1015.7
20180618182604 71 0 3.0 9.0 0.00 0.00 0.00 53 1015.7
20180618182104 70 0 3.0 10.0 0.00 0.00 0.00 53 1015.8
20180618181559 70 229 3.0 10.0 0.00 0.00 0.00 53 1015.7
20180618181100 71 0 3.0 9.0 0.00 0.00 0.00 51 1015.8
20180618180600 71 0 2.0 9.0 0.00 0.00 0.00 51 1015.8
20180618180101 71 285 1.0 9.0 0.00 0.00 0.00 52 1015.9
20180618175555 71 245 1.0 5.0 0.00 0.00 0.00 52 1015.9
20180618175056 71 291 2.0 5.0 0.00 0.00 0.00 53 1016.0
20180618174556 70 273 2.0 6.0 0.00 0.00 0.00 54 1016.0
20180618174056 70 226 1.0 6.0 0.00 0.00 0.00 53 1016.0
20180618173553 69 181 1.0 5.0 0.00 0.00 0.00 54 1015.8
20180618173052 69 0 2.0 5.0 0.00 0.00 0.00 55 1015.9
20180618172557 69 0 2.0 5.0 0.00 0.00 0.00 56 1015.9
20180618172053 68 0 2.0 7.0 0.00 0.00 0.00 57 1015.8
20180618171556 68 0 3.0 7.0 0.00 0.00 0.00 57 1015.9
20180618171048 68 0 1.0 6.0 0.00 0.00 0.00 56 1015.9
20180618170548 68 0 0.0 4.0 0.00 0.00 0.00 58 1015.9
20180618170049 68 0 1.0 7.0 0.00 0.00 0.00 58 1015.9
20180618165545 68 0 1.0 7.0 0.00 0.00 0.00 58 1015.9
20180618165046 68 0 1.0 5.0 0.00 0.00 0.00 58 1015.9
20180618164545 68 0 2.0 5.0 0.00 0.00 0.00 58 1016.0
20180618163542 67 0 2.0 7.0 0.00 0.00 0.00 60 1016.0
20180618163040 66 0 2.0 7.0 0.00 0.00 0.00 62 1015.9
20180618162540 66 250 2.0 6.0 0.00 0.00 0.00 62 1016.0
20180618162040 66 260 2.0 6.0 0.00 0.00 0.00 62 1016.0
20180618161535 66 253 2.0 7.0 0.00 0.00 0.00 62 1016.0
20180618161036 65 304 1.0 7.0 0.00 0.00 0.00 63 1016.1
20180618160537 65 211 1.0 6.0 0.00 0.00 0.00 62 1016.0
20180618160036 65 218 1.0 6.0 0.00 0.00 0.00 63 1016.0
20180618155533 65 281 2.0 6.0 0.00 0.00 0.00 63 1016.1
20180618155032 65 0 2.0 5.0 0.00 0.00 0.00 63 1016.0
20180618154532 65 0 2.0 6.0 0.00 0.00 0.00 64 1015.9
20180618154032 65 0 2.0 6.0 0.00 0.00 0.00 65 1015.8
20180618153527 64 210 2.0 5.0 0.00 0.00 0.00 64 1015.7
20180618153028 64 281 2.0 6.0 0.00 0.00 0.00 66 1015.7
20180618152528 64 218 2.0 6.0 0.00 0.00 0.00 66 1015.7
20180618152029 64 251 3.0 6.0 0.00 0.00 0.00 66 1015.7
20180618151524 64 211 3.0 6.0 0.00 0.00 0.00 66 1015.8
20180618151024 64 205 3.0 7.0 0.00 0.00 0.00 67 1015.8
20180618150524 64 236 3.0 7.0 0.00 0.00 0.00 68 1015.7
20180618150033 64 217 3.0 6.0 0.00 0.00 0.00 68 1015.7
20180618145520 63 0 3.0 6.0 0.00 0.00 0.00 68 1015.7
20180618145021 63 250 3.0 6.0 0.00 0.00 0.00 70 1015.7
20180618144521 63 240 3.0 6.0 0.00 0.00 0.00 71 1015.6
20180618144020 62 278 3.0 7.0 0.00 0.00 0.00 73 1015.6
20180618143515 62 0 4.0 7.0 0.00 0.00 0.00 73 1015.5
20180618143016 62 215 4.0 6.0 0.00 0.00 0.00 75 1015.4
20180618142516 62 239 3.0 6.0 0.00 0.00 0.00 75 1015.4
20180618142017 62 236 3.0 6.0 0.00 0.00 0.00 76 1015.3
20180618141513 62 229 3.0 6.0 0.00 0.00 0.00 77 1015.2
20180618141014 61 246 3.0 6.0 0.00 0.00 0.00 77 1015.1
20180618140514 61 240 3.0 6.0 0.00 0.00 0.00 78 1015.1
20180618140012 61 229 3.0 6.0 0.00 0.00 0.00 78 1015.1
20180618135509 61 206 3.0 6.0 0.00 0.00 0.00 78 1015.1
20180618135007 61 233 3.0 6.0 0.00 0.00 0.00 78 1015.0
20180618134509 61 237 3.0 6.0 0.00 0.00 0.00 78 1015.0
20180618134008 60 236 4.0 6.0 0.00 0.00 0.00 78 1014.9
20180618133459 60 234 3.0 6.0 0.00 0.00 0.00 78 1014.9
20180618133000 60 232 3.0 6.0 0.00 0.00 0.00 79 1014.8
20180618132459 60 225 3.0 5.0 0.00 0.00 0.00 79 1014.8
20180618131958 60 208 3.0 5.0 0.00 0.00 0.00 79 1014.8
20180618131456 60 219 2.0 5.0 0.00 0.00 0.00 79 1014.7
20180618130954 60 214 1.0 5.0 0.00 0.00 0.00 79 1014.7
20180618130455 60 234 0.0 2.0 0.00 0.00 0.00 79 1014.7
20180618125952 60 234 0.0 3.0 0.00 0.00 0.00 79 1014.7
20180618125449 60 223 0.0 3.0 0.00 0.00 0.00 80 1014.6
20180618124950 60 198 0.0 2.0 0.00 0.00 0.00 80 1014.6
20180618124449 60 225 0.0 2.0 0.00 0.00 0.00 80 1014.5
20180618123945 60 208 0.0 4.0 0.00 0.00 0.00 80 1014.5
20180618123446 59 208 2.0 4.0 0.00 0.00 0.00 80 1014.5
20180618122943 59 207 2.0 4.0 0.00 0.00 0.00 80 1014.6
20180618122442 59 211 2.0 4.0 0.00 0.00 0.00 80 1014.5
20180618121942 60 211 1.0 4.0 0.00 0.00 0.00 80 1014.5
20180618121442 60 206 1.0 4.0 0.00 0.00 0.00 80 1014.5
20180618120941 60 206 2.0 4.0 0.00 0.00 0.00 80 1014.5
20180618120441 60 206 2.0 4.0 0.00 0.00 0.00 80 1014.4
20180618115942 60 205 2.0 4.0 0.00 0.00 0.00 80 1014.5
20180618115441 60 221 1.0 4.0 0.00 0.00 0.00 80 1014.6
20180618114942 60 229 0.0 0.0 0.00 0.00 0.00 80 1014.5
20180618114439 60 234 0.0 0.0 0.00 0.00 0.00 80 1014.5
20180618113939 60 234 0.0 2.0 0.00 0.00 0.00 80 1014.5
20180618113439 60 234 0.0 2.0 0.00 0.00 0.00 79 1014.4
20180618112932 60 234 0.0 4.0 0.00 0.00 0.00 79 1014.5
20180618112429 60 240 1.0 4.0 0.00 0.00 0.00 79 1014.4
20180618111929 60 240 0.0 4.0 0.00 0.00 0.00 79 1014.4
20180618111428 60 237 2.0 5.0 0.00 0.00 0.00 79 1014.3
20180618110925 60 257 3.0 6.0 0.00 0.00 0.00 79 1014.3
20180618110423 60 249 3.0 6.0 0.00 0.00 0.00 79 1014.3
20180618105919 60 241 3.0 6.0 0.00 0.00 0.00 79 1014.4
20180618105419 60 242 3.0 6.0 0.00 0.00 0.00 79 1014.4
20180618104920 60 241 3.0 5.0 0.00 0.00 0.00 79 1014.5
20180618104419 60 240 2.0 5.0 0.00 0.00 0.00 79 1014.4
20180618103919 60 255 1.0 4.0 0.00 0.00 0.00 79 1014.5
20180618103420 60 248 2.0 5.0 0.00 0.00 0.00 79 1014.4
20180618102914 60 250 1.0 5.0 0.00 0.00 0.00 79 1014.4
20180618102411 60 260 0.0 4.0 0.00 0.00 0.00 79 1014.4
20180618101912 60 257 0.0 0.0 0.00 0.00 0.00 79 1014.4
20180618101411 60 264 0.0 0.0 0.00 0.00 0.00 79 1014.5
20180618100912 60 279 0.0 1.0 0.00 0.00 0.00 79 1014.4
20180618100409 60 292 0.0 1.0 0.00 0.00 0.00 79 1014.5
20180618095910 60 284 0.0 0.0 0.00 0.00 0.00 79 1014.4
20180618095409 60 240 0.0 5.0 0.00 0.00 0.00 79 1014.4
20180618094908 60 246 0.0 5.0 0.00 0.00 0.00 79 1014.4
20180618094407 60 279 0.0 4.0 0.00 0.00 0.00 80 1014.5
20180618093903 60 291 0.0 1.0 0.00 0.00 0.00 80 1014.4
20180618093403 59 269 0.0 0.0 0.00 0.00 0.00 80 1014.4
20180618092902 59 250 0.0 0.0 0.00 0.00 0.00 80 1014.5
20180618092401 59 250 1.0 4.0 0.00 0.00 0.00 80 1014.5
20180618091859 59 252 2.0 4.0 0.00 0.00 0.00 79 1014.5
20180618091359 59 270 3.0 4.0 0.00 0.00 0.00 79 1014.6
20180618090859 59 289 2.0 5.0 0.00 0.00 0.00 80 1014.6
20180618090359 59 248 2.0 5.0 0.00 0.00 0.00 79 1014.6
20180618085859 59 257 1.0 4.0 0.00 0.00 0.00 79 1014.6
20180618085359 59 254 0.0 1.0 0.00 0.00 0.00 79 1014.5
20180618084900 59 258 0.0 0.0 0.00 0.00 0.00 79 1014.5
20180618084357 60 259 1.0 3.0 0.00 0.00 0.00 79 1014.6
20180618083855 60 259 2.0 5.0 0.00 0.00 0.00 79 1014.7
20180618083353 60 260 2.0 5.0 0.00 0.00 0.00 78 1014.7
20180618082852 60 273 2.0 3.0 0.00 0.00 0.00 78 1014.8
20180618082350 60 283 2.0 5.0 0.00 0.00 0.00 78 1014.8
20180618081849 60 243 3.0 5.0 0.00 0.00 0.00 78 1014.9
20180618081350 60 246 3.0 6.0 0.00 0.00 0.00 78 1014.9
20180618080849 60 243 4.0 7.0 0.00 0.00 0.00 78 1014.9
20180618080349 60 253 4.0 8.0 0.00 0.00 0.00 78 1014.9
20180618075849 60 235 4.0 8.0 0.00 0.00 0.00 77 1014.9
20180618075345 61 233 4.0 8.0 0.00 0.00 0.00 77 1015.0
20180618074845 61 240 4.0 8.0 0.00 0.00 0.00 77 1014.9
20180618074343 61 240 4.0 7.0 0.00 0.00 0.00 77 1015.0
20180618073841 61 251 4.0 7.0 0.00 0.00 0.00 76 1015.0
20180618073342 61 250 4.0 7.0 0.00 0.00 0.00 76 1015.0
20180618072847 61 231 4.0 8.0 0.00 0.00 0.00 76 1015.1
20180618072339 61 256 4.0 8.0 0.00 0.00 0.00 76 1015.1
20180618071838 61 240 4.0 7.0 0.00 0.00 0.00 76 1015.2
20180618071338 61 240 3.0 7.0 0.00 0.00 0.00 76 1015.2
20180618070838 61 213 3.0 6.0 0.00 0.00 0.00 77 1015.1
20180618070339 61 235 4.0 9.0 0.00 0.00 0.00 77 1015.2
20180618065831 61 238 4.0 9.0 0.00 0.00 0.00 77 1015.1
20180618065332 61 247 3.0 8.0 0.00 0.00 0.00 77 1015.1
20180618064832 61 227 3.0 7.0 0.00 0.00 0.00 77 1015.1
20180618064330 61 253 4.0 8.0 0.00 0.00 0.00 77 1015.1
20180618063830 60 234 5.0 8.0 0.00 0.00 0.00 78 1015.1
20180618063330 60 238 3.0 8.0 0.00 0.00 0.00 78 1015.1
20180618062831 60 253 1.0 7.0 0.00 0.00 0.00 78 1015.2
20180618062329 60 240 0.0 3.0 0.00 0.00 0.00 78 1015.1
20180618061826 60 230 0.0 4.0 0.00 0.00 0.00 78 1015.1
20180618061326 60 234 2.0 4.0 0.00 0.00 0.00 78 1015.2
20180618060825 60 227 2.0 6.0 0.00 0.00 0.00 78 1015.2
20180618060325 60 236 0.0 6.0 0.00 0.00 0.00 79 1015.2
20180618055824 60 232 0.0 0.0 0.00 0.00 0.00 78 1015.1
20180618055324 60 238 0.0 1.0 0.00 0.00 0.00 78 1015.2
20180618054824 60 232 0.0 1.0 0.00 0.00 0.00 77 1015.2
20180618054324 60 230 0.0 0.0 0.00 0.00 0.00 77 1015.1
20180618053824 60 240 0.0 0.0 0.00 0.00 0.00 77 1015.1
20180618053323 60 254 0.0 0.0 0.00 0.00 0.00 76 1015.1
20180618052820 60 236 0.0 0.0 0.00 0.00 0.00 76 1015.1
20180618052320 60 229 0.0 1.0 0.00 0.00 0.00 76 1015.0
20180618051819 61 262 0.0 1.0 0.00 0.00 0.00 76 1014.9
20180618051321 61 241 0.0 1.0 0.00 0.00 0.00 75 1014.9
20180618050820 61 232 0.0 1.0 0.00 0.00 0.00 75 1014.9
20180618050320 61 230 1.0 8.0 0.00 0.00 0.00 75 1014.9
20180618045820 61 228 1.0 8.0 0.00 0.00 0.00 75 1014.8
20180618045320 61 213 0.0 7.0 0.00 0.00 0.00 75 1014.8
20180618044819 61 233 1.0 9.0 0.00 0.00 0.00 75 1014.8
20180618044318 61 238 1.0 9.0 0.00 0.00 0.00 75 1014.7
20180618043818 61 211 1.0 9.0 0.00 0.00 0.00 74 1014.7
20180618043319 61 257 1.0 9.0 0.00 0.00 0.00 74 1014.6
20180618042817 61 259 1.0 6.0 0.00 0.00 0.00 73 1014.5
20180618042318 61 218 0.0 3.0 0.00 0.00 0.00 73 1014.5
20180618041815 61 242 0.0 5.0 0.00 0.00 0.00 73 1014.4
20180618041317 61 247 0.0 5.0 0.00 0.00 0.00 72 1014.4
20180618040817 61 234 0.0 4.0 0.00 0.00 0.00 72 1014.3
20180618040316 61 222 0.0 4.0 0.00 0.00 0.00 71 1014.2
20180618035815 62 219 0.0 2.0 0.00 0.00 0.00 71 1014.2
20180618035314 62 221 0.0 6.0 0.00 0.00 0.00 70 1014.1
20180618034814 62 248 0.0 6.0 0.00 0.00 0.00 70 1014.0
20180618034315 62 248 0.0 3.0 0.00 0.00 0.00 70 1014.0
20180618033812 62 240 0.0 8.0 0.00 0.00 0.00 69 1013.9
20180618033311 62 233 1.0 8.0 0.00 0.00 0.00 68 1013.9
20180618032812 62 0 1.0 9.0 0.00 0.00 0.00 68 1013.8
20180618032311 62 196 1.0 9.0 0.00 0.00 0.00 67 1013.7
20180618031810 62 227 2.0 9.0 0.00 0.00 0.00 67 1013.7
20180618031309 63 244 2.0 10.0 0.00 0.00 0.00 66 1013.6
20180618030812 63 273 1.0 10.0 0.00 0.00 0.00 66 1013.6
20180618030309 63 229 2.0 11.0 0.00 0.00 0.00 65 1013.5
20180618025810 63 221 2.0 11.0 0.00 0.00 0.00 65 1013.5
20180618025310 63 224 2.0 12.0 0.00 0.00 0.00 65 1013.5
20180618024810 64 218 4.0 12.0 0.00 0.00 0.00 65 1013.6
20180618024306 64 236 4.0 12.0 0.00 0.00 0.00 64 1013.6
20180618023805 64 214 3.0 10.0 0.00 0.00 0.00 64 1013.6
20180618023307 64 253 3.0 11.0 0.00 0.00 0.00 63 1013.6
20180618022806 65 0 3.0 11.0 0.00 0.00 0.00 62 1013.5
20180618022259 65 250 2.0 10.0 0.00 0.00 0.00 61 1013.5
20180618021759 65 0 3.0 9.0 0.00 0.00 0.00 61 1013.4
20180618021301 65 0 4.0 12.0 0.00 0.00 0.00 61 1013.4
20180618020800 66 269 4.0 13.0 0.00 0.00 0.00 59 1013.3
20180618020300 66 237 3.0 13.0 0.00 0.00 0.00 59 1013.4
20180618015758 67 237 4.0 12.0 0.00 0.00 0.00 59 1013.2
20180618015258 67 236 3.0 12.0 0.00 0.00 0.00 59 1013.2
20180618014756 67 232 3.0 12.0 0.00 0.00 0.00 58 1013.2
20180618014256 67 231 4.0 13.0 0.00 0.00 0.00 57 1013.2
20180618013757 67 207 4.0 13.0 0.00 0.00 0.00 57 1013.2
20180618013256 68 209 3.0 11.0 0.00 0.00 0.00 57 1013.1
20180618012755 68 220 4.0 12.0 0.00 0.00 0.00 55 1013.2
20180618012251 68 231 5.0 15.0 0.00 0.00 0.00 56 1013.1
20180618011752 69 227 4.0 15.0 0.00 0.00 0.00 55 1013.1
20180618011248 69 224 5.0 15.0 0.00 0.00 0.00 55 1013.0
20180618010748 69 248 5.0 15.0 0.00 0.00 0.00 55 1013.1
20180618010248 69 238 4.0 11.0 0.00 0.00 0.00 54 1013.1
20180618005748 69 238 3.0 14.0 0.00 0.00 0.00 54 1013.1
20180618005247 69 219 4.0 16.0 0.00 0.00 0.00 54 1013.0
20180618004749 70 223 3.0 16.0 0.00 0.00 0.00 54 1013.0
20180618004243 70 232 3.0 11.0 0.00 0.00 0.00 53 1013.1
20180618003744 70 248 4.0 13.0 0.00 0.00 0.00 53 1013.1
20180618003244 71 234 4.0 13.0 0.00 0.00 0.00 52 1013.1
20180618002744 71 211 4.0 12.0 0.00 0.00 0.00 52 1013.1
20180618002242 71 215 5.0 13.0 0.00 0.00 0.00 52 1013.1
20180618001742 71 229 4.0 13.0 0.00 0.00 0.00 51 1013.1
20180618001239 71 207 4.0 13.0 0.00 0.00 0.00 51 1013.0
20180618000738 71 246 4.0 16.0 0.00 0.00 0.00 53 1013.0
20180618000238 72 234 4.0 16.0 0.00 0.00 0.00 50 1013.1
20180617235738 72 243 3.0 11.0 0.00 0.00 0.00 51 1013.1
20180617235234 72 237 2.0 11.0 0.00 0.00 0.00 50 1013.1
20180617234737 72 231 4.0 14.0 0.00 0.00 0.00 50 1013.1
20180617234230 72 216 4.0 17.0 0.00 0.00 0.00 50 1013.1
20180617233730 72 230 3.0 17.0 0.00 0.00 0.00 50 1013.1
20180617233231 72 236 4.0 13.0 0.00 0.00 0.00 50 1013.0
20180617232729 72 331 4.0 16.0 0.00 0.00 0.00 50 1013.0
20180617232230 72 218 3.0 16.0 0.00 0.00 0.00 49 1013.1
20180617231730 72 229 3.0 14.0 0.00 0.00 0.00 51 1013.1
20180617231226 73 238 3.0 14.0 0.00 0.00 0.00 50 1013.1
20180617230736 72 229 3.0 14.0 0.00 0.00 0.00 50 1013.1
20180617230226 72 247 4.0 13.0 0.00 0.00 0.00 51 1013.1
20180617225722 72 215 4.0 13.0 0.00 0.00 0.00 49 1013.2
20180617225221 74 254 3.0 12.0 0.00 0.00 0.00 48 1013.1
20180617224722 73 250 3.0 12.0 0.00 0.00 0.00 49 1013.2
20180617224220 74 220 3.0 12.0 0.00 0.00 0.00 47 1013.2
20180617223723 73 208 4.0 13.0 0.00 0.00 0.00 48 1013.2
20180617223219 73 244 2.0 13.0 0.00 0.00 0.00 49 1013.1
20180617222720 73 230 3.0 14.0 0.00 0.00 0.00 49 1013.2
20180617222218 72 247 3.0 14.0 0.00 0.00 0.00 50 1013.2
20180617221721 73 232 2.0 10.0 0.00 0.00 0.00 49 1013.2
20180617221219 73 232 3.0 13.0 0.00 0.00 0.00 49 1013.2
20180617220719 73 228 2.0 13.0 0.00 0.00 0.00 48 1013.3
20180617220218 73 238 2.0 11.0 0.00 0.00 0.00 49 1013.2
20180617215727 73 226 3.0 15.0 0.00 0.00 0.00 48 1013.3
20180617215218 74 283 4.0 15.0 0.00 0.00 0.00 48 1013.2
20180617214733 74 236 3.0 13.0 0.00 0.00 0.00 48 1013.3
20180617214219 73 241 3.0 17.0 0.00 0.00 0.00 48 1013.2
20180617213731 73 304 2.0 17.0 0.00 0.00 0.00 48 1013.2
20180617213218 74 261 1.0 14.0 0.00 0.00 0.00 47 1013.4
20180617212719 73 236 3.0 14.0 0.00 0.00 0.00 49 1013.4
20180617212218 73 303 2.0 12.0 0.00 0.00 0.00 49 1013.4
20180617211720 74 0 2.0 15.0 0.00 0.00 0.00 48 1013.4
20180617211217 73 250 3.0 15.0 0.00 0.00 0.00 49 1013.4
20180617210716 73 193 2.0 14.0 0.00 0.00 0.00 50 1013.3
20180617210217 73 211 1.0 14.0 0.00 0.00 0.00 47 1013.3
20180617205716 72 268 2.0 10.0 0.00 0.00 0.00 48 1013.4
20180617205216 72 283 2.0 10.0 0.00 0.00 0.00 49 1013.5
20180617204716 72 298 2.0 15.0 0.00 0.00 0.00 49 1013.5
20180617204217 72 215 2.0 15.0 0.00 0.00 0.00 49 1013.6
20180617203710 73 0 1.0 10.0 0.00 0.00 0.00 49 1013.6
20180617203210 74 0 1.0 10.0 0.00 0.00 0.00 47 1013.6
20180617202710 74 255 1.0 7.0 0.00 0.00 0.00 45 1013.6
20180617202210 73 0 1.0 6.0 0.00 0.00 0.00 49 1013.6
20180617201713 72 226 2.0 13.0 0.00 0.00 0.00 49 1013.5
20180617201208 71 220 2.0 13.0 0.00 0.00 0.00 48 1013.7
20180617200712 72 229 1.0 9.0 0.00 0.00 0.00 48 1013.6
20180617200208 71 0 1.0 9.0 0.00 0.00 0.00 49 1013.5
20180617195711 71 0 2.0 12.0 0.00 0.00 0.00 49 1013.6
20180617195207 71 217 3.0 12.0 0.00 0.00 0.00 50 1013.7
20180617194707 71 211 2.0 10.0 0.00 0.00 0.00 49 1013.6
20180617194205 71 231 2.0 10.0 0.00 0.00 0.00 48 1013.7
20180617193711 71 225 1.0 9.0 0.00 0.00 0.00 48 1013.7
20180617193206 71 244 1.0 6.0 0.00 0.00 0.00 47 1013.6
20180617192722 71 217 0.0 6.0 0.00 0.00 0.00 47 1013.7
20180617192207 70 0 0.0 5.0 0.00 0.00 0.00 49 1013.6
20180617191718 70 0 0.0 5.0 0.00 0.00 0.00 48 1013.7
20180617191204 70 0 1.0 4.0 0.00 0.00 0.00 51 1013.7
20180617190711 70 0.0 0.0 0.00 0.00 0.00 49
20180617185543 69 0 0.0 5.0 0.00 0.00 0.00 49 1013.6
20180617185041 70 0 0.0 5.0 0.00 0.00 0.00 49 1013.5
20180617184542 70 0 0.0 4.0 0.00 0.00 0.00 51 1013.6